| time (UTC) | temp C | wind direction | speed KPH | gust KPH | rain 1hr cm | rain 24hr cm | rain mn cm | humidity % | barometer mb |
| 20260503181144 | 20 | 319 | 8.0 | 22.5 | 0.00 | 0.00 | 0.00 | 56 | 1014.8 |
| 20260503180122 | 18 | 310 | 11.3 | 30.6 | 0.00 | 0.00 | 0.00 | 57 | 1014.7 |
| 20260503175122 | 18 | 308 | 11.3 | 29.0 | 0.00 | 0.00 | 0.00 | 59 | 1014.9 |
| 20260503174122 | 20 | 347 | 6.4 | 25.7 | 0.00 | 0.00 | 0.00 | 56 | 1014.9 |
| 20260503173123 | 21 | 355 | 9.7 | 29.0 | 0.00 | 0.00 | 0.00 | 53 | 1014.7 |
| 20260503172122 | 21 | 343 | 4.8 | 12.9 | 0.00 | 0.00 | 0.00 | 56 | 1014.8 |
| 20260503171122 | 20 | 319 | 4.8 | 12.9 | 0.00 | 0.00 | 0.00 | 57 | 1014.9 |
| 20260503170144 | 20 | 327 | 3.2 | 9.7 | 0.00 | 0.00 | 0.00 | 60 | 1014.9 |
| 20260503160122 | 18 | 319 | 3.2 | 16.1 | 0.00 | 0.00 | 0.00 | 64 | 1015.3 |
| 20260503150122 | 16 | 348 | 3.2 | 9.7 | 0.00 | 0.00 | 0.00 | 71 | 1015.5 |
| 20260503140143 | 12 | 314 | 0.0 | 0.0 | 0.00 | 0.00 | 0.00 | 83 | 1015.5 |
| 20260503131122 | 11 | 316 | 0.0 | 0.0 | 0.00 | 0.00 | 0.00 | 85 | 1015.4 |
| 20260503130122 | 11 | 315 | 0.0 | 0.0 | 0.00 | 0.00 | 0.00 | 85 | 1015.2 |
| 20260503120122 | 11 | 314 | 0.0 | 0.0 | 0.00 | 0.00 | 0.00 | 85 | 1015.1 |
| 20260503110122 | 12 | 314 | 0.0 | 0.0 | 0.00 | 0.00 | 0.00 | 84 | 1015.2 |
| 20260503100123 | 12 | 316 | 0.0 | 0.0 | 0.00 | 0.00 | 0.00 | 79 | 1015.3 |
| 20260503090122 | 13 | 333 | 0.0 | 4.8 | 0.00 | 0.00 | 0.00 | 79 | 1015.1 |
| 20260503081122 | 13 | 314 | 0.0 | 0.0 | 0.00 | 0.00 | 0.00 | 79 | 1015.0 |
| 20260503080122 | 13 | 332 | 0.0 | 3.2 | 0.00 | 0.00 | 0.00 | 78 | 1014.9 |
| 20260503072123 | 14 | 359 | 0.0 | 0.0 | 0.00 | 0.00 | 0.00 | 78 | 1014.7 |
| 20260503071122 | 14 | 359 | 0.0 | 0.0 | 0.00 | 0.00 | 0.00 | 78 | 1014.7 |
| 20260503060122 | 15 | 359 | 0.0 | 0.0 | 0.00 | 0.00 | 0.00 | 74 | 1014.4 |
| 20260503054122 | 16 | 359 | 0.0 | 0.0 | 0.00 | 0.00 | 0.00 | 73 | 1014.2 |
| 20260503053122 | 16 | 359 | 0.0 | 4.8 | 0.00 | 0.00 | 0.00 | 72 | 1014.3 |
| 20260503052123 | 16 | 359 | 0.0 | 0.0 | 0.00 | 0.00 | 0.00 | 71 | 1014.2 |
| 20260503051122 | 16 | 359 | 0.0 | 3.2 | 0.00 | 0.00 | 0.00 | 70 | 1014.2 |
| 20260503050145 | 16 | 359 | 0.0 | 3.2 | 0.00 | 0.00 | 0.00 | 69 | 1014.2 |
| 20260503045123 | 17 | 359 | 0.0 | 0.0 | 0.00 | 0.00 | 0.00 | 68 | 1014.2 |
| 20260503044122 | 17 | 359 | 0.0 | 0.0 | 0.00 | 0.00 | 0.00 | 67 | 1014.1 |
| 20260503043122 | 17 | 358 | 1.6 | 8.0 | 0.00 | 0.00 | 0.00 | 66 | 1014.1 |
| 20260503042122 | 18 | 346 | 0.0 | 4.8 | 0.00 | 0.00 | 0.00 | 63 | 1014.0 |
| 20260503041123 | 18 | 305 | 4.8 | 12.9 | 0.00 | 0.00 | 0.00 | 60 | 1014.0 |
| 20260503040122 | 18 | 328 | 3.2 | 9.7 | 0.00 | 0.00 | 0.00 | 60 | 1013.9 |
| 20260503035123 | 18 | 328 | 3.2 | 9.7 | 0.00 | 0.00 | 0.00 | 59 | 1013.9 |
| 20260503034123 | 18 | 337 | 4.8 | 16.1 | 0.00 | 0.00 | 0.00 | 58 | 1013.7 |
| 20260503033122 | 19 | 345 | 4.8 | 16.1 | 0.00 | 0.00 | 0.00 | 56 | 1013.6 |
| 20260503032123 | 20 | 313 | 6.4 | 25.7 | 0.00 | 0.00 | 0.00 | 50 | 1013.4 |
| 20260503031122 | 21 | 307 | 4.8 | 17.7 | 0.00 | 0.00 | 0.00 | 47 | 1013.4 |
| 20260503030122 | 21 | 298 | 4.8 | 20.9 | 0.00 | 0.00 | 0.00 | 47 | 1013.4 |
| 20260503025122 | 21 | 302 | 6.4 | 25.7 | 0.00 | 0.00 | 0.00 | 45 | 1013.3 |
| 20260503024143 | 21 | 306 | 3.2 | 20.9 | 0.00 | 0.00 | 0.00 | 44 | 1013.4 |
| 20260503023122 | 21 | 307 | 4.8 | 30.6 | 0.00 | 0.00 | 0.00 | 44 | 1013.4 |
| 20260503022123 | 22 | 292 | 3.2 | 17.7 | 0.00 | 0.00 | 0.00 | 43 | 1013.4 |
| 20260503021122 | 22 | 283 | 4.8 | 25.7 | 0.00 | 0.00 | 0.00 | 43 | 1013.4 |
| 20260503020122 | 22 | 312 | 4.8 | 22.5 | 0.00 | 0.00 | 0.00 | 42 | 1013.5 |
| 20260503015122 | 22 | 293 | 6.4 | 38.6 | 0.00 | 0.00 | 0.00 | 41 | 1013.4 |
| 20260503014122 | 22 | 300 | 4.8 | 17.7 | 0.00 | 0.00 | 0.00 | 40 | 1013.6 |
| 20260503013123 | 22 | 302 | 6.4 | 29.0 | 0.00 | 0.00 | 0.00 | 39 | 1013.6 |
| 20260503012122 | 23 | 310 | 4.8 | 29.0 | 0.00 | 0.00 | 0.00 | 38 | 1013.7 |
| 20260503011122 | 23 | 306 | 6.4 | 25.7 | 0.00 | 0.00 | 0.00 | 39 | 1013.9 |
| 20260503010122 | 23 | 305 | 6.4 | 30.6 | 0.00 | 0.00 | 0.00 | 41 | 1013.9 |
| 20260503005122 | 23 | 295 | 4.8 | 25.7 | 0.00 | 0.00 | 0.00 | 41 | 1013.9 |
| 20260503004122 | 23 | 301 | 3.2 | 22.5 | 0.00 | 0.00 | 0.00 | 39 | 1014.0 |
| 20260503003122 | 23 | 282 | 3.2 | 22.5 | 0.00 | 0.00 | 0.00 | 39 | 1014.0 |
| 20260503002122 | 23 | 300 | 6.4 | 30.6 | 0.00 | 0.00 | 0.00 | 39 | 1014.2 |
| 20260503001122 | 23 | 294 | 6.4 | 29.0 | 0.00 | 0.00 | 0.00 | 41 | 1014.3 |
| 20260503000122 | 23 | 286 | 4.8 | 22.5 | 0.00 | 0.00 | 0.00 | 44 | 1014.4 |
| 20260502235122 | 23 | 317 | 8.0 | 29.0 | 0.00 | 0.00 | 0.00 | 45 | 1014.5 |
| 20260502234122 | 23 | 292 | 6.4 | 29.0 | 0.00 | 0.00 | 0.00 | 44 | 1014.7 |
| 20260502233123 | 23 | 307 | 6.4 | 30.6 | 0.00 | 0.00 | 0.00 | 45 | 1014.8 |
| 20260502232123 | 24 | 305 | 4.8 | 29.0 | 0.00 | 0.00 | 0.00 | 43 | 1014.7 |
| 20260502231122 | 23 | 306 | 11.3 | 41.8 | 0.00 | 0.00 | 0.00 | 44 | 1014.9 |
| 20260502230122 | 23 | 306 | 11.3 | 38.6 | 0.00 | 0.00 | 0.00 | 45 | 1015.0 |
| 20260502225122 | 23 | 300 | 8.0 | 33.8 | 0.00 | 0.00 | 0.00 | 46 | 1015.3 |
| 20260502224122 | 23 | 310 | 12.9 | 38.6 | 0.00 | 0.00 | 0.00 | 47 | 1015.3 |
| 20260502223122 | 23 | 292 | 8.0 | 25.7 | 0.00 | 0.00 | 0.00 | 45 | 1015.5 |
| 20260502222122 | 23 | 308 | 9.7 | 30.6 | 0.00 | 0.00 | 0.00 | 47 | 1015.5 |
| 20260502221122 | 23 | 313 | 8.0 | 30.6 | 0.00 | 0.00 | 0.00 | 49 | 1015.8 |
| 20260502220122 | 22 | 309 | 14.5 | 38.6 | 0.00 | 0.00 | 0.00 | 49 | 1015.8 |
| 20260502215122 | 22 | 304 | 9.7 | 33.8 | 0.00 | 0.00 | 0.00 | 49 | 1015.9 |
| 20260502214122 | 22 | 311 | 9.7 | 38.6 | 0.00 | 0.00 | 0.00 | 52 | 1016.1 |
| 20260502213143 | 21 | 311 | 8.0 | 30.6 | 0.00 | 0.00 | 0.00 | 56 | 1016.3 |
| 20260502212122 | 21 | 297 | 4.8 | 17.7 | 0.00 | 0.00 | 0.00 | 56 | 1016.5 |
| 20260502211143 | 21 | 311 | 8.0 | 29.0 | 0.00 | 0.00 | 0.00 | 56 | 1016.5 |
| 20260502210122 | 21 | 318 | 6.4 | 29.0 | 0.00 | 0.00 | 0.00 | 58 | 1016.6 |
| 20260502205122 | 21 | 317 | 8.0 | 25.7 | 0.00 | 0.00 | 0.00 | 59 | 1016.8 |
| 20260502204122 | 21 | 324 | 9.7 | 29.0 | 0.00 | 0.00 | 0.00 | 57 | 1016.8 |
| 20260502203122 | 21 | 313 | 8.0 | 29.0 | 0.00 | 0.00 | 0.00 | 57 | 1016.8 |
| 20260502202122 | 21 | 323 | 4.8 | 20.9 | 0.00 | 0.00 | 0.00 | 57 | 1016.9 |
| 20260502201122 | 21 | 323 | 6.4 | 22.5 | 0.00 | 0.00 | 0.00 | 57 | 1017.1 |
| 20260502200124 | 21 | 334 | 8.0 | 30.6 | 0.00 | 0.00 | 0.00 | 60 | 1017.1 |
| 20260502195122 | 20 | 323 | 11.3 | 30.6 | 0.00 | 0.00 | 0.00 | 59 | 1017.3 |
| 20260502194122 | 21 | 336 | 8.0 | 25.7 | 0.00 | 0.00 | 0.00 | 61 | 1017.3 |
| 20260502193122 | 20 | 358 | 12.9 | 33.8 | 0.00 | 0.00 | 0.00 | 61 | 1017.4 |
| 20260502192122 | 20 | 351 | 9.7 | 29.0 | 0.00 | 0.00 | 0.00 | 62 | 1017.4 |
| 20260502191122 | 20 | 324 | 8.0 | 29.0 | 0.00 | 0.00 | 0.00 | 62 | 1017.4 |
| 20260502190144 | 20 | 350 | 9.7 | 29.0 | 0.00 | 0.00 | 0.00 | 62 | 1017.5 |
| 20260502185143 | 19 | 320 | 4.8 | 20.9 | 0.00 | 0.00 | 0.00 | 64 | 1017.5 |
| 20260502184144 | 19 | 341 | 6.4 | 22.5 | 0.00 | 0.00 | 0.00 | 65 | 1017.5 |
| 20260502183122 | 18 | 336 | 8.0 | 29.0 | 0.00 | 0.00 | 0.00 | 67 | 1017.6 |
| 20260502182123 | 18 | 327 | 6.4 | 20.9 | 0.00 | 0.00 | 0.00 | 66 | 1017.6 |